Date String (YYYY-MM-DD hh:mm:ss) UTC,Instrument flags,Ambient pressure (hPa),Sample flow (lpm),Bypass flow (lpm),Sample temperature (°C),Ambient temperature (°C),ASC tube jacket temperature (°C),LED temperature (°C),Box temperature (°C),Sample RH (%),Span deviation,Mass concentration (μg/m³),Mass concentration (μg/m³),Mass concentration (μg/m³)
DateTimeUTC,F1_M11,P_M11,Q1_M11,Q2_M11,T1_M11,T2_M11,T3_M11,T4_M11,T5_M11,U1_M11,ZSPAN_M11,X0_M11,X2_M11,X1_M11
2022-12-12 03:00:00,,0816.4,5.00,0.00,28.0,26.3,00.0,37.1,29.7,06.2,0000.0,0011.40,0004.03,0003.43
2022-12-12 03:01:00,,0816.5,4.99,0.00,28.0,26.3,00.0,37.1,29.7,06.3,0000.0,0012.18,0004.25,0003.59
2022-12-12 03:02:00,,0816.4,4.99,0.00,28.0,26.1,00.0,37.0,29.7,06.4,0000.0,0012.63,0004.46,0003.73
2022-12-12 03:03:00,,0816.5,5.00,0.00,27.9,26.1,00.0,37.0,29.7,06.4,0000.0,0012.10,0004.58,0003.83
2022-12-12 03:04:00,,0816.5,5.01,0.00,27.9,26.1,00.0,37.0,29.6,06.5,0000.0,0012.25,0004.72,0003.93
2022-12-12 03:05:00,,0816.4,5.00,0.00,27.9,26.2,00.0,37.0,29.7,06.6,0000.0,0012.59,0004.89,0004.07
2022-12-12 03:06:00,,0816.4,4.99,0.00,27.9,26.2,00.0,36.9,29.7,06.6,0000.0,0012.94,0005.09,0004.25
2022-12-12 03:07:00,,0816.4,4.99,0.00,27.9,26.2,00.0,36.9,29.7,06.6,0000.0,0013.74,0005.31,0004.45
2022-12-12 03:08:00,,0816.4,5.00,0.00,27.9,26.0,00.0,36.9,29.6,06.7,0000.0,0015.16,0005.54,0004.62
2022-12-12 03:09:00,,0816.4,5.02,0.00,27.8,25.9,00.0,36.9,29.6,06.8,0000.0,0015.49,0005.60,0004.73
2022-12-12 03:10:00,,0816.4,4.99,0.00,27.8,25.9,00.0,36.9,29.5,06.9,0000.0,0014.86,0005.74,0004.87
2022-12-12 03:11:00,,0816.4,4.99,0.00,27.8,25.9,00.0,36.8,29.5,07.0,0000.0,0016.09,0005.94,0005.03
2022-12-12 03:12:00,,0816.4,4.99,0.00,27.8,26.0,00.0,36.8,29.5,07.1,0000.0,0016.98,0006.13,0005.19
2022-12-12 03:13:00,,0816.4,5.00,0.00,27.8,25.9,00.0,36.8,29.5,07.1,0000.0,0018.21,0006.42,0005.39
2022-12-12 03:14:00,,0816.4,5.01,0.00,27.7,25.8,00.0,36.8,29.5,07.2,0000.0,0019.37,0006.67,0005.60
2022-12-12 03:15:00,,0816.4,5.01,0.00,27.7,25.7,00.0,36.8,29.4,07.2,0000.0,0021.14,0006.93,0005.82
2022-12-12 03:16:00,,0816.4,5.00,0.00,27.7,25.6,00.0,36.7,29.4,07.2,0000.0,0021.90,0007.16,0006.04
2022-12-12 03:17:00,,0816.3,5.00,0.00,27.6,25.7,00.0,36.7,29.4,07.3,0000.0,0023.10,0007.38,0006.23
2022-12-12 03:18:00,,0816.3,4.99,0.00,27.6,25.8,00.0,36.7,29.4,07.4,0000.0,0023.89,0007.67,0006.45
2022-12-12 03:19:00,,0816.3,4.99,0.00,27.6,25.9,00.0,36.7,29.4,07.5,0000.0,0023.94,0008.01,0006.68
2022-12-12 03:20:00,,0816.4,5.00,0.00,27.6,25.9,00.0,36.7,29.4,07.4,0000.0,0023.95,0008.32,0006.89
2022-12-12 03:21:00,,0816.4,5.00,0.00,27.6,25.9,00.0,36.6,29.4,07.4,0000.0,0023.81,0008.52,0007.02
2022-12-12 03:22:00,,0816.3,5.01,0.00,27.6,25.9,00.0,36.6,29.3,07.4,0000.0,0023.37,0008.64,0007.15
2022-12-12 03:23:00,,0816.3,5.01,0.00,27.6,25.9,00.0,36.6,29.3,07.3,0000.0,0022.42,0008.68,0007.21
2022-12-12 03:24:00,,0816.3,4.98,0.00,27.6,25.9,00.0,36.6,29.3,07.1,0000.0,0020.92,0008.59,0007.17
2022-12-12 03:25:00,,0816.3,5.00,0.00,27.6,26.0,00.0,36.6,29.3,07.0,0000.0,0019.79,0008.47,0007.10
2022-12-12 03:26:00,,0816.3,5.01,0.00,27.5,26.0,00.0,36.6,29.3,06.4,0000.0,0017.96,0008.20,0006.92
2022-12-12 03:27:00,,0816.3,5.00,0.00,27.5,25.9,00.0,36.6,29.3,05.9,0000.0,0016.88,0007.81,0006.59
2022-12-12 03:28:00,,0816.3,5.00,0.00,27.5,25.9,00.0,36.6,29.2,05.6,0000.0,0015.87,0007.43,0006.23
2022-12-12 03:29:00,,0816.3,4.98,0.00,27.5,25.9,00.0,36.5,29.3,05.7,0000.0,0014.96,0006.94,0005.84
2022-12-12 03:30:00,,0816.2,5.00,0.00,27.5,25.9,00.0,36.5,29.3,06.0,0000.0,0014.45,0006.50,0005.49
2022-12-12 03:31:00,,0816.1,5.01,0.00,27.5,25.9,00.0,36.5,29.3,06.1,0000.0,0013.70,0006.10,0005.17
2022-12-12 03:32:00,,0816.1,5.01,0.00,27.5,25.9,00.0,36.5,29.2,06.2,0000.0,0013.22,0005.76,0004.92
2022-12-12 03:33:00,,0816.2,5.00,0.00,27.5,25.9,00.0,36.5,29.2,05.9,0000.0,0012.36,0005.37,0004.62
2022-12-12 03:34:00,,0816.2,4.99,0.00,27.5,25.9,00.0,36.5,29.2,05.6,0000.0,0011.63,0004.96,0004.28
2022-12-12 03:35:00,,0816.2,4.99,0.00,27.5,25.9,00.0,36.5,29.2,05.6,0000.0,0010.93,0004.54,0003.96
2022-12-12 03:36:00,,0816.2,5.01,0.00,27.5,25.8,00.0,36.5,29.2,05.6,0000.0,0010.53,0004.26,0003.70
2022-12-12 03:37:00,,0816.1,5.01,0.00,27.5,25.8,00.0,36.5,29.2,05.7,0000.0,0010.49,0004.09,0003.53
2022-12-12 03:38:00,,0816.1,5.00,0.00,27.4,25.8,00.0,36.5,29.2,05.7,0000.0,0011.00,0004.06,0003.50
2022-12-12 03:39:00,,0816.1,4.99,0.00,27.4,25.8,00.0,36.4,29.1,06.1,0000.0,0010.99,0004.15,0003.58
2022-12-12 03:40:00,,0816.0,4.99,0.00,27.4,25.8,00.0,36.4,29.2,06.4,0000.0,0011.32,0004.36,0003.75
2022-12-12 03:41:00,,0816.0,5.00,0.00,27.4,25.8,00.0,36.4,29.1,06.2,0000.0,0010.98,0004.41,0003.82
2022-12-12 03:42:00,,0816.0,5.01,0.00,27.4,25.8,00.0,36.4,29.1,05.9,0000.0,0010.92,0004.40,0003.83
2022-12-12 03:43:00,,0816.0,5.00,0.00,27.4,25.8,00.0,36.4,29.1,05.6,0000.0,0010.57,0004.27,0003.72
2022-12-12 03:44:00,,0816.1,5.00,0.00,27.4,25.8,00.0,36.4,29.1,05.6,0000.0,0009.85,0004.16,0003.62
2022-12-12 03:45:00,,0816.0,5.00,0.00,27.4,25.8,00.0,36.4,29.1,05.5,0000.0,0009.82,0004.12,0003.58
2022-12-12 03:46:00,,0816.1,5.00,0.00,27.4,25.8,00.0,36.4,29.1,05.4,0000.0,0009.88,0004.11,0003.55
2022-12-12 03:47:00,,0816.1,5.00,0.00,27.4,25.7,00.0,36.4,29.1,05.4,0000.0,0009.78,0004.07,0003.51
2022-12-12 03:48:00,,0816.1,4.99,0.00,27.3,25.7,00.0,36.4,29.0,05.4,0000.0,0009.48,0003.99,0003.47
2022-12-12 03:49:00,,0816.0,5.00,0.00,27.3,25.7,00.0,36.4,29.0,05.4,0000.0,0008.94,0003.99,0003.44
2022-12-12 03:50:00,,0816.0,5.01,0.00,27.3,25.7,00.0,36.3,29.0,05.4,0000.0,0008.40,0003.84,0003.34
2022-12-12 03:51:00,,0816.1,5.00,0.00,27.3,25.7,00.0,36.3,29.0,05.4,0000.0,0007.61,0003.59,0003.11
2022-12-12 03:52:00,,0816.0,4.98,0.00,27.3,25.7,00.0,36.3,29.0,05.4,0000.0,0006.32,0003.37,0002.82
2022-12-12 03:53:00,,0816.0,5.01,0.00,27.3,25.7,00.0,36.3,29.0,05.5,0000.0,0005.11,0003.17,0002.56
2022-12-12 03:54:00,,0816.0,5.00,0.00,27.3,25.6,00.0,36.3,29.0,05.6,0000.0,0005.32,0003.13,0002.48
2022-12-12 03:55:00,,0816.1,5.00,0.00,27.3,25.6,00.0,36.3,29.0,05.5,0000.0,0005.64,0003.05,0002.42
2022-12-12 03:56:00,,0816.1,4.99,0.00,27.3,25.6,00.0,36.3,28.9,05.3,0000.0,0005.47,0002.96,0002.35
2022-12-12 03:57:00,,0816.1,5.00,0.00,27.2,25.6,00.0,36.3,29.0,05.4,0000.0,0005.41,0002.96,0002.36
2022-12-12 03:58:00,,0816.1,5.00,0.00,27.3,25.6,00.0,36.3,29.0,05.5,0000.0,0005.39,0002.99,0002.41
2022-12-12 03:59:00,,0816.1,5.01,0.00,27.3,25.7,00.0,36.2,29.0,05.5,0000.0,0005.35,0003.02,0002.44
